Hourly Data Report for July 20, 2016

OTTAWA INTL A
ONTARIO

45°19'00.000" N
75°40'00.000" W
114.90 m
6106001
71628
YOW

Download Data

Hourly Data (July 2016)
Hourly Data Report for July 20, 2016
TIME
LST
Temp Definition
°C
Dew Point Definition
°C
Rel Hum Definition
%
Precip. Amount Definition
mm

Wind Dir Definition
10's deg

Wind Spd Definition
km/h
Visibility Definition
km
Stn Press Definition
kPa
Hmdx Definition


Wind Chill Definition


Weather Definition


00:00 13.7 10.2 79   25 5 24.1 100.84     LegendNANA
01:00 12.7 10.1 84   25 8 24.1 100.88     Clear
02:00 11.8 9.9 88   23 5 24.1 100.84     LegendNANA
03:00 11.7 10.0 89   25 7 24.1 100.91     LegendNANA
04:00 11.6 9.5 87   26 8 24.1 100.95     Mainly Clear
05:00 10.9 9.3 90   21 6 24.1 100.93     LegendNANA
06:00 12.7 10.6 87   22 5 24.1 100.95     LegendNANA
07:00 16.6 11.8 73   27 13 24.1 100.99     Mainly Clear
08:00 19.2 12.1 63   30 15 24.1 101.01     LegendNANA
09:00 20.6 12.2 58   28 16 24.1 100.98     LegendNANA
10:00 22.9 12.7 52   26 16 24.1 100.97 26   Mainly Clear
11:00 24.3 12.1 46   27 16 24.1 100.92 27   LegendNANA
12:00 25.5 11.9 42   31 19 24.1 100.89 28   LegendNANA
13:00 26.1 11.7 40   25 19 24.1 100.84 28   Mainly Clear
14:00 26.6 12.5 41   25 13 24.1 100.76 29   LegendNANA
15:00 26.1 12.0 41   28 12 24.1 100.72 28   LegendNANA
16:00 26.5 12.0 40   26 12 24.1 100.68 29   Mostly Cloudy
17:00 26.9 12.4 40   26 11 24.1 100.61 29   LegendNANA
18:00 26.5 13.1 43   23 4 24.1 100.59 29   LegendNANA
19:00 24.1 12.9 49   23 8 24.1 100.58 27   Mainly Clear
20:00 22.5 12.6 53   23 9 24.1 100.55 25   LegendNANA
21:00 21.1 13.2 60   20 12 24.1 100.59     LegendNANA
22:00 19.7 13.3 66   23 11 24.1 100.62     Mainly Clear
23:00 17.9 12.9 72   21 11 24.1 100.55     LegendNANA

Notes on Data Quality.

Legend

  • E = Estimated
  • M = Missing
  • NA = Not Available*
  • [empty] = Indicates an unobserved value
Date modified: